[[{"header":{"parameterUnit":"m.s-1","parameterCategory":1,"la1":30.2991,"la2":30.254,"lo1":-89.0895,"lo2":-89.0444,"dy":0.0017,"dx":0.0017,"nx":28,"ny":28,"refTime":"2024-12-18T03:00:00:Z","depth":0,"parameterNumber":2,"parameterNumberName":"U-component_of_WINDS"},"data":[0,0,0,0,0,0,0,0,0,0,0,0,0,0,0,0,0,0,0,0,0,0,0,0,0,0,0,0,0,0,0,0,0,0,0,0,0,0,0,0,0,0,0,0,0,0,0,0,0,0,0,0,0,0,0,0,0,0,-0.5761,-0.576,0,-0.5742,-0.5742,-0.5741,-0.5686,-0.5684,-0.5683,-0.5682,-0.5665,-0.5665,-0.5666,0,0,0,0,0,0,0,0,0,0,0,0,0,-0.5752,-0.5752,-0.5761,-0.576,-0.576,-0.5742,-0.5742,-0.5741,-0.5686,-0.5684,-0.5683,-0.5681,-0.5664,-0.5665,-0.5666,0,0,0,0,0,0,0,0,0,0,0,0,0,-0.5747,-0.5752,-0.5761,-0.573,-0.5727,-0.5742,-0.5742,-0.5741,-0.5686,-0.5684,-0.5682,-0.5681,-0.5664,-0.5665,-0.5666,-0.5709,0,0,-0.5669,-0.567,0,0,0,0,0,0,0,0,-0.5747,-0.5747,-0.5735,-0.5732,-0.5729,-0.5714,-0.5732,-0.5731,-0.5687,-0.5702,-0.5682,-0.568,-0.5683,-0.5682,-0.5683,-0.5709,-0.5708,-0.5669,-0.567,-0.567,-0.5671,0,0,0,0,0,0,0,-0.5748,-0.5748,-0.5753,-0.5735,-0.5731,-0.5719,-0.5716,-0.5732,-0.5703,-0.57,-0.5696,-0.5695,-0.5681,-0.5682,-0.5682,-0.5708,-0.5669,-0.567,-0.5671,-0.5671,-0.5771,-0.5773,0,0,0,0,0,0,-0.5752,-0.5748,-0.5754,-0.5753,-0.5734,-0.572,-0.5717,-0.5721,-0.5703,-0.5698,-0.5696,-0.5692,-0.5681,-0.5681,-0.5681,-0.5732,-0.567,-0.5671,-0.5672,-0.5769,-0.5771,-0.5774,0,0,0,0,0,0,-0.5752,-0.5753,-0.5755,-0.5749,-0.5749,-0.5722,-0.5727,-0.5721,-0.5722,-0.5699,-0.5694,-0.5702,-0.568,-0.568,-0.5703,-0.5731,-0.5672,-0.5673,-0.5767,-0.577,-0.5772,-0.5834,0,0,0,0,0,0,-0.5752,-0.5753,-0.5768,-0.575,-0.5749,-0.5776,-0.5729,-0.5722,-0.5724,-0.5718,-0.5704,-0.57,-0.5678,-0.5702,-0.5704,-0.5731,-0.5674,-0.5764,-0.5768,-0.5771,-0.5829,-0.5839,-0.5847,0,0,0,0,0,-0.5752,-0.5786,-0.5769,-0.577,-0.5767,-0.5778,-0.5777,-0.5751,-0.5726,-0.5742,-0.5728,-0.57,-0.5727,-0.5705,-0.5707,-0.5735,-0.5762,-0.5767,-0.5771,-0.5825,-0.5837,-0.5846,0,0,0,0,0,0,-0.5809,-0.5783,-0.5764,-0.5794,-0.5789,-0.5768,-0.5787,-0.5764,-0.5766,-0.5761,-0.5729,-0.5726,-0.5755,-0.5747,-0.5722,-0.5777,-0.574,-0.5746,-0.5781,-0.5791,-0.58,-0.5802,-0.5674,0,0,0,0,0,-0.5825,-0.5834,-0.5812,-0.584,-0.5839,-0.5814,-0.5817,-0.5798,-0.5791,-0.5789,-0.5776,-0.5771,-0.5779,-0.5785,-0.579,-0.5828,-0.5825,-0.5848,-0.5857,-0.5864,-0.5869,-0.5891,-0.5902,-0.5789,-0.5789,-0.5788,0,0,-0.5858,-0.5845,-0.5853,-0.5852,-0.5845,-0.5857,-0.5812,-0.5826,-0.5835,-0.5791,-0.5813,-0.5804,-0.5797,-0.5828,-0.5841,-0.5822,-0.59,-0.587,-0.5876,-0.5877,-0.5897,-0.5907,-0.5917,-0.5792,-0.5791,-0.5791,0,0,-0.5925,-0.5915,-0.5939,-0.5934,-0.5924,-0.5908,-0.5914,-0.5898,-0.589,-0.5911,-0.5879,-0.589,-0.5903,-0.59,-0.59,-0.5969,-0.5944,-0.5971,-0.6017,-0.6039,-0.6048,-0.6055,-0.6081,-0.6091,-0.5977,-0.5977,-0.5977,0,-0.5967,-0.5983,-0.5954,-0.5971,-0.5972,-0.5932,-0.5957,-0.5954,-0.5947,-0.595,-0.5928,-0.5946,-0.5938,-0.5969,-0.5986,-0.5987,-0.5994,-0.5973,-0.6048,-0.6056,-0.6063,-0.6087,-0.6097,-0.598,-0.598,-0.5979,-0.5979,0,-0.6037,-0.6049,-0.6069,-0.6064,-0.6067,-0.6088,-0.6063,-0.6071,-0.6051,-0.6038,-0.6062,-0.6051,-0.6055,-0.6061,-0.6042,-0.609,-0.6079,-0.6054,-0.6017,-0.6078,-0.61,-0.6109,-0.5985,-0.5984,-0.5983,-0.5982,0,0,-0.6138,-0.6118,-0.6126,-0.6124,-0.6112,-0.6121,-0.6141,-0.6145,-0.6152,-0.615,-0.6167,-0.618,-0.6157,-0.6158,-0.6138,-0.6157,-0.6215,-0.613,-0.6129,-0.6147,-0.627,-0.629,-0.6301,-0.6198,-0.62,-0.6201,-0.6271,0,-0.6203,-0.6234,-0.621,-0.6247,-0.6259,-0.6222,-0.624,-0.6235,-0.6224,-0.6233,-0.622,-0.6231,-0.6199,-0.6199,-0.6216,-0.6204,-0.6239,-0.6198,-0.6215,-0.6216,-0.6219,-0.6313,-0.6333,-0.64,-0.6279,-0.6281,-0.6282,0,-0.6281,-0.6283,-0.6321,-0.6308,-0.6312,-0.6329,-0.6331,-0.634,-0.6335,-0.6325,-0.6327,-0.6304,-0.6324,-0.6288,-0.6316,-0.629,-0.6295,-0.6291,-0.6293,-0.6294,-0.6253,-0.6318,-0.642,-0.6431,-0.6295,-0.6294,-0.6293,0,-0.6354,-0.6365,-0.639,-0.6389,-0.6374,-0.6387,-0.6382,-0.6375,-0.638,-0.6382,-0.6385,-0.639,-0.6394,-0.6399,-0.6378,-0.6353,-0.6411,-0.6372,-0.6405,-0.6406,-0.6419,-0.6419,-0.6525,-0.6421,-0.6421,-0.6421,-0.6421,0,-0.6429,-0.6454,-0.6422,-0.6438,-0.6466,-0.6438,-0.6467,-0.6458,-0.6453,-0.6467,-0.6436,-0.645,-0.6421,-0.6434,-0.6418,-0.6445,-0.6447,-0.6441,-0.6437,-0.6444,-0.6445,-0.6448,-0.6443,-0.6424,-0.6423,-0.6422,-0.6422,0,-0.6514,-0.6493,-0.6518,-0.6503,-0.65,-0.6522,-0.6509,-0.6524,-0.651,-0.6529,-0.6532,-0.6512,-0.6525,-0.6505,-0.6515,-0.6504,-0.6543,-0.6531,-0.6545,-0.6542,-0.6577,-0.6575,-0.669,-0.6704,-0.659,-0.6591,-0.6592,0,-0.6564,-0.6582,-0.6569,-0.6577,-0.6573,-0.6585,-0.6589,-0.6564,-0.657,-0.6567,-0.6583,-0.6593,-0.66,-0.6622,-0.6609,-0.6618,-0.6607,-0.6647,-0.6608,-0.6616,-0.6609,-0.6609,-0.6612,-0.6655,-0.6656,-0.6657,-0.6658,0,-0.6655,-0.6644,-0.6651,-0.6656,-0.6663,-0.6665,-0.6666,-0.6674,-0.6647,-0.6656,-0.6668,-0.6674,-0.6685,-0.6696,-0.6702,-0.6698,-0.6675,-0.6671,-0.6679,-0.6688,-0.6695,-0.6693,-0.6568,-0.6668,-0.6667,-0.6666,-0.6666,-0.6665,-0.6725,-0.674,-0.6734,-0.6744,-0.6742,-0.6744,-0.6757,-0.6746,-0.6756,-0.6763,-0.6747,-0.6764,-0.6761,-0.6766,-0.6765,-0.6779,-0.6762,-0.6774,-0.6777,-0.6781,-0.6787,-0.6692,-0.678,-0.678,-0.6779,-0.6779,-0.6779,0,-0.6816,-0.681,-0.682,-0.6821,-0.683,-0.6806,-0.6806,-0.6815,-0.6831,-0.6829,-0.6837,-0.6853,-0.6864,-0.6853,-0.6862,-0.6876,-0.6866,-0.688,-0.6879,-0.6879,-0.6801,-0.6793,-0.6888,-0.6888,-0.6888,-0.6888,-0.6888,-0.6888,-0.6864,-0.689,-0.6879,-0.6904,-0.6899,-0.6915,-0.6917,-0.692,-0.6918,-0.6937,-0.6947,-0.6939,-0.6934,-0.6944,-0.6954,-0.695,-0.6956,-0.6974,-0.6968,-0.6895,-0.6884,-0.6874,-0.6867,-0.6975,-0.6976,-0.7045,-0.7045,-0.7046]},{"header":{"parameterUnit":"m.s-1","parameterCategory":1,"la1":30.2991,"la2":30.254,"lo1":-89.0895,"lo2":-89.0444,"dy":0.0017,"dx":0.0017,"nx":28,"ny":28,"refTime":"2024-12-18T03:00:00:Z","depth":0,"parameterNumber":3,"parameterNumberName":"V-component_of_WINDS"},"data":[0,0,0,0,0,0,0,0,0,0,0,0,0,0,0,0,0,0,0,0,0,0,0,0,0,0,0,0,0,0,0,0,0,0,0,0,0,0,0,0,0,0,0,0,0,0,0,0,0,0,0,0,0,0,0,0,0,0,0.8864,0.8864,0,0.8874,0.8874,0.8874,0.8885,0.8885,0.8885,0.8886,0.8895,0.8896,0.8896,0,0,0,0,0,0,0,0,0,0,0,0,0,0.8857,0.8857,0.8864,0.8865,0.8865,0.8874,0.8874,0.8874,0.8885,0.8885,0.8886,0.8886,0.8895,0.8896,0.8896,0,0,0,0,0,0,0,0,0,0,0,0,0,0.8862,0.8857,0.8864,0.8871,0.8872,0.8874,0.8874,0.8874,0.8885,0.8885,0.8886,0.8886,0.8895,0.8896,0.8896,0.8892,0,0,0.8896,0.8896,0,0,0,0,0,0,0,0,0.8862,0.8863,0.887,0.8871,0.8872,0.8879,0.8875,0.888,0.8885,0.888,0.8886,0.8886,0.889,0.889,0.8892,0.8892,0.8893,0.8896,0.8896,0.8896,0.8896,0,0,0,0,0,0,0,0.8862,0.8862,0.8868,0.887,0.8871,0.8874,0.8875,0.8876,0.8883,0.8881,0.8881,0.8882,0.889,0.8891,0.8892,0.8893,0.8896,0.8896,0.8896,0.8897,0.8892,0.8891,0,0,0,0,0,0,0.886,0.8862,0.8868,0.8868,0.8867,0.8874,0.8875,0.8876,0.8883,0.8885,0.8882,0.8883,0.8891,0.8892,0.8892,0.8889,0.8896,0.8897,0.8897,0.8892,0.8892,0.8891,0,0,0,0,0,0,0.886,0.8861,0.8867,0.8865,0.8867,0.8874,0.8875,0.8876,0.8877,0.8885,0.8886,0.8882,0.8891,0.8892,0.8892,0.8889,0.8897,0.8897,0.8892,0.8892,0.8892,0.8881,0,0,0,0,0,0,0.886,0.886,0.8859,0.8865,0.8867,0.8867,0.8875,0.8876,0.8878,0.8879,0.8885,0.8886,0.8891,0.8892,0.8892,0.889,0.8897,0.8892,0.8892,0.8892,0.8882,0.8881,0.888,0,0,0,0,0,0.8859,0.8855,0.8859,0.8859,0.8865,0.8867,0.8867,0.8874,0.8877,0.8876,0.8881,0.8886,0.8889,0.8892,0.8892,0.889,0.8893,0.8892,0.8892,0.8882,0.8881,0.888,0,0,0,0,0,0,0.8848,0.8856,0.886,0.8858,0.8861,0.8868,0.8867,0.8872,0.8874,0.8875,0.8883,0.8884,0.8883,0.8886,0.8889,0.8887,0.8892,0.8891,0.8885,0.8883,0.8882,0.8882,0.8897,0,0,0,0,0,0.8845,0.8846,0.8853,0.8851,0.8852,0.8859,0.886,0.8865,0.8869,0.887,0.8875,0.8879,0.8881,0.8882,0.8885,0.8882,0.8884,0.8881,0.888,0.8879,0.8879,0.8879,0.8877,0.889,0.889,0.889,0,0,0.884,0.8844,0.8844,0.8849,0.8852,0.8853,0.886,0.8861,0.8862,0.8871,0.8871,0.8875,0.888,0.8879,0.8879,0.8881,0.8876,0.8878,0.8877,0.8878,0.8878,0.8877,0.8876,0.8889,0.8889,0.889,0,0,0.883,0.8833,0.8832,0.8835,0.884,0.8845,0.8845,0.8851,0.8854,0.8855,0.8861,0.8863,0.8866,0.8869,0.8872,0.8864,0.8869,0.8865,0.8859,0.8859,0.8858,0.8857,0.8855,0.8854,0.8864,0.8864,0.8864,0,0.8822,0.8824,0.8831,0.8831,0.8833,0.8841,0.884,0.8843,0.8849,0.885,0.8853,0.8858,0.8862,0.8862,0.886,0.8862,0.8862,0.8864,0.8857,0.8856,0.8856,0.8854,0.8853,0.8864,0.8864,0.8864,0.8864,0,0.8815,0.8816,0.8814,0.882,0.8821,0.8821,0.8828,0.8829,0.8834,0.8838,0.8839,0.8844,0.8848,0.8848,0.8853,0.885,0.8851,0.8856,0.8861,0.8854,0.8852,0.8852,0.8863,0.8863,0.8863,0.8863,0,0,0.8798,0.8808,0.8807,0.881,0.8816,0.8817,0.8818,0.8822,0.8823,0.8826,0.8827,0.883,0.8834,0.8837,0.8842,0.8842,0.8836,0.8846,0.8846,0.8845,0.8834,0.8831,0.883,0.884,0.884,0.884,0.8834,0,0.879,0.8791,0.8797,0.8797,0.8798,0.8806,0.8807,0.8811,0.8815,0.8818,0.8823,0.8825,0.883,0.8831,0.8832,0.8837,0.8835,0.8837,0.8841,0.8841,0.884,0.883,0.8826,0.8821,0.8834,0.8833,0.8833,0,0.878,0.8784,0.8783,0.8791,0.8792,0.8792,0.8796,0.8798,0.8803,0.8807,0.881,0.8816,0.8817,0.8822,0.8824,0.8826,0.8828,0.8831,0.8831,0.8832,0.8837,0.8831,0.8819,0.8819,0.8832,0.8832,0.8832,0,0.8769,0.8774,0.8774,0.8776,0.8785,0.8785,0.8788,0.8794,0.8796,0.88,0.8802,0.8806,0.8808,0.8811,0.8818,0.8821,0.882,0.8825,0.8823,0.8823,0.8823,0.8823,0.8812,0.8823,0.8823,0.8823,0.8823,0,0.876,0.8759,0.8769,0.877,0.877,0.8777,0.8777,0.8781,0.8786,0.8788,0.8795,0.8797,0.8805,0.8808,0.8813,0.8815,0.8816,0.8819,0.882,0.8818,0.8818,0.882,0.8821,0.8823,0.8823,0.8823,0.8823,0,0.8747,0.8754,0.8755,0.8763,0.8765,0.8765,0.8772,0.8773,0.8778,0.878,0.8781,0.8789,0.8792,0.8799,0.8805,0.8808,0.8809,0.8811,0.8807,0.8808,0.8806,0.8806,0.8796,0.8796,0.8807,0.8807,0.8807,0,0.8741,0.8741,0.8749,0.8751,0.8754,0.8756,0.8759,0.8766,0.8769,0.8775,0.8776,0.878,0.8783,0.8789,0.8795,0.88,0.8802,0.8799,0.8803,0.8801,0.8803,0.8803,0.8804,0.8798,0.8798,0.8797,0.8797,0,0.8729,0.8733,0.8736,0.874,0.8743,0.8747,0.8751,0.8752,0.8761,0.8763,0.8767,0.877,0.8776,0.878,0.8786,0.879,0.8795,0.8796,0.8796,0.8794,0.8792,0.8794,0.8805,0.8796,0.8796,0.8796,0.8796,0.8796,0.872,0.8721,0.8727,0.873,0.8734,0.8738,0.874,0.8745,0.8749,0.8754,0.8758,0.8762,0.8768,0.8776,0.878,0.8783,0.8786,0.8785,0.8785,0.8785,0.8785,0.8791,0.8784,0.8784,0.8784,0.8784,0.8784,0,0.871,0.8714,0.8717,0.8723,0.8726,0.8731,0.8736,0.8738,0.8741,0.8747,0.875,0.8755,0.8759,0.8766,0.8771,0.8773,0.8775,0.8774,0.8774,0.8775,0.8782,0.8782,0.8772,0.8772,0.8772,0.8772,0.8772,0.8772,0.8704,0.8706,0.871,0.8714,0.8719,0.8722,0.8725,0.8729,0.8733,0.8738,0.8742,0.8746,0.8753,0.8758,0.8763,0.8765,0.8766,0.8764,0.8767,0.8773,0.8774,0.8775,0.8775,0.8764,0.8764,0.876,0.876,0.876]}]]